Location: Powder Track
(41.8531°N, 72.3584°W)
Time: 18:33:29
(UTC+00:00)

Vanguard 1 Rocket - Pass Details

Date: 06 August 2021
Orbit: 650 x 4226 km, 34.3° (Epoch: 20 September)

Event Time Altitude Azimuth Distance (km) Brightness Sun altitude
Rises 12:27:38 0° 226° (SW) 8,422 12.0 28.0°
Reaches altitude 10° 12:33:52 10° 221° (SW) 7,423 11.8 29.2°
Maximum altitude 12:57:15 49° 156° (SSE) 4,106 11.5 33.5°
Drops below altitude 10° 13:12:14 10° 88° (E) 4,990 12.4 36.3°
Sets 13:15:25 0° 83° (E) 5,608 12.3 36.8°
